Weather History for Albuquerque Double Eagle, NM

Change the Weather History Date:

Wednesday, February 6, 2013

  Actual Average Record
Temperature  
Mean Temperature 37 °F -  
Max Temperature 55 °F - - ()
Min Temperature 19 °F - - ()
Degree Days  
Heating Degree Days 28    
Moisture  
Dew Point 16 °F    
Average Humidity 45    
Maximum Humidity 63    
Minimum Humidity 29    
Precipitation  
Precipitation 0.00 in - - ()
Sea Level Pressure  
Sea Level Pressure 29.99 in    
Wind  
Wind Speed 4 mph (NW)    
Max Wind Speed 13 mph    
Max Gust Speed 17 mph    
Visibility 10 miles    
Events      
T = Trace of Precipitation, MM = Missing Value Source: NWS Daily Summary

Daily Weather History Graph

Daily Weather History Graph

Search for Another Location

Airport:

Trip Planner

Search our weather history database for the weather conditions in past years. The results will help you decide how hot, cold, wet, or windy it might be!

Date:

Astronomy

Feb. 06, 2013 Rise Set
Actual Time 7:01 AM MST 5:41 PM MST
Civil Twilight 6:35 AM MST 6:07 PM MST
Nautical Twilight 6:05 AM MST 6:37 PM MST
Astronomical Twilight 5:35 AM MST 7:07 PM MST
Moon 3:44 AM MST (2/6) 2:06 PM MST (2/6)
Length of Visible Light 11h 32m
Length of Day
10h 39m
Waning Crescent, 16% of the Moon is Illuminated
Feb 6
Waning Crescent
Feb 10
New
Feb 17
First Quarter
Feb 25
Full
Mar 4
Last Quarter

Hourly Weather History & Observations

Time (MST) Temp. Windchill Dew Point Humidity Pressure Visibility Wind Dir Wind Speed Gust Speed Precip Events Conditions
12:15 AM 35.6 °F 32.8 °F 15.8 °F 44% 30.03 in 10.0 mi ENE 3.5 mph - N/A   Clear
12:35 AM 35.6 °F 32.8 °F 14.0 °F 41% 30.03 in 10.0 mi ENE 3.5 mph - N/A   Clear
12:55 AM 32.0 °F - 12.2 °F 44% 30.02 in 10.0 mi Calm Calm - N/A   Clear
1:35 AM 24.8 °F - 10.4 °F 54% 30.02 in 10.0 mi Calm Calm - N/A   Clear
1:55 AM 24.8 °F - 10.4 °F 54% 30.01 in 10.0 mi Calm Calm - N/A   Clear
2:15 AM 24.8 °F - 10.4 °F 54% 30.00 in 10.0 mi Calm Calm - N/A   Clear
2:35 AM 26.6 °F - 12.2 °F 55% 30.00 in 10.0 mi Calm Calm - N/A   Clear
2:55 AM 26.6 °F 22.6 °F 12.2 °F 55% 30.00 in 10.0 mi NW 3.5 mph - N/A   Clear
3:15 AM 24.8 °F 17.9 °F 10.4 °F 54% 29.99 in 10.0 mi NW 5.8 mph - N/A   Clear
3:35 AM 23.0 °F 15.8 °F 10.4 °F 59% 29.99 in 10.0 mi WNW 5.8 mph - N/A   Clear
3:55 AM 24.8 °F 19.1 °F 10.4 °F 54% 29.98 in 10.0 mi WNW 4.6 mph - N/A   Clear
4:15 AM 21.2 °F - 8.6 °F 58% 29.98 in 10.0 mi Calm Calm - N/A   Clear
4:35 AM 23.0 °F - 10.4 °F 59% 29.98 in 10.0 mi Calm Calm - N/A   Clear
5:50 AM 19.4 °F - 8.6 °F 63% 29.97 in 10.0 mi Calm Calm - N/A   Clear
6:50 AM 19.4 °F - 8.6 °F 63% 29.98 in 10.0 mi Calm Calm - N/A   Clear
8:50 AM 37.4 °F - 15.8 °F 41% 30.01 in 10.0 mi Calm Calm - N/A   Clear
9:50 AM 41.0 °F - 15.8 °F 36% 30.02 in 10.0 mi Calm Calm - N/A   Clear
10:50 AM 46.4 °F 43.5 °F 17.6 °F 32% 30.00 in 10.0 mi SSW 5.8 mph - N/A   Scattered Clouds
11:50 AM 50.0 °F - 19.4 °F 30% 29.99 in 10.0 mi West 5.8 mph - N/A   Mostly Cloudy
12:50 PM 50.0 °F - 23.0 °F 35% 29.94 in 10.0 mi SW 5.8 mph - N/A   Mostly Cloudy
1:50 PM 55.4 °F - 23.0 °F 29% 29.91 in 10.0 mi West 6.9 mph - N/A   Mostly Cloudy
2:50 PM 55.4 °F - 23.0 °F 29% 29.90 in 10.0 mi WSW 6.9 mph 17.3 mph N/A   Scattered Clouds
3:50 PM 53.6 °F - 24.8 °F 33% 29.90 in 10.0 mi WSW 12.7 mph - N/A   Mostly Cloudy
4:50 PM 53.6 °F - 23.0 °F 30% 29.91 in 10.0 mi WNW 8.1 mph - N/A   Mostly Cloudy
5:50 PM 50.0 °F - 19.4 °F 30% 29.93 in 10.0 mi NW 11.5 mph - N/A   Mostly Cloudy
6:50 PM 48.2 °F - 17.6 °F 30% 29.95 in 10.0 mi WNW 9.2 mph - N/A   Mostly Cloudy
7:50 PM 44.6 °F 39.2 °F 19.4 °F 37% 29.97 in 10.0 mi NW 10.4 mph - N/A   Clear
8:50 PM 42.8 °F 36.6 °F 19.4 °F 39% 29.99 in 10.0 mi NW 11.5 mph - N/A   Clear
9:15 PM 41.0 °F 34.7 °F 19.4 °F 42% 30.00 in 10.0 mi NNW 10.4 mph - N/A   Clear
9:35 PM 39.2 °F 33.0 °F 19.4 °F 45% 30.01 in 10.0 mi NNW 9.2 mph - N/A   Clear
9:55 PM 39.2 °F 32.0 °F 19.4 °F 45% 30.01 in 10.0 mi NNW 11.5 mph - N/A   Clear
10:15 PM 39.2 °F 32.5 °F 19.4 °F 45% 30.01 in 10.0 mi NNW 10.4 mph - N/A   Clear
10:35 PM 37.4 °F 30.8 °F 19.4 °F 48% 30.02 in 10.0 mi NW 9.2 mph - N/A   Clear
10:55 PM 35.6 °F 27.5 °F 19.4 °F 52% 30.02 in 10.0 mi NW 11.5 mph - N/A   Clear
11:15 PM 37.4 °F 31.4 °F 19.4 °F 48% 30.02 in 10.0 mi NNW 8.1 mph - N/A   Clear
11:35 PM 35.6 °F 29.9 °F 19.4 °F 52% 30.03 in 10.0 mi NW 6.9 mph - N/A   Clear
11:55 PM 33.8 °F 25.3 °F 19.4 °F 56% 30.03 in 10.0 mi NW 11.5 mph - N/A   Clear